EDRS-C (44475 NORAD) Tracking and Keplerian Element Data

This shows tracking and keplerian element data for the satellite.

Feedback or suggestion? Click here.




ElementValue
Catalog44475
NameEDRS-C
Epoch Orbit37
Epoch Day248.20975826
Epoch Year2019
RAAN311.0502
Inclination0.0725
Eccentricity6.52E-05
Argument of Perigee272.0659
Mean Anonmoly217.7056
Mean Motion1.00274657
Decay Rate1.06E-06
L11 44475U 19049A 19248.20975826 .00000106 00000-0 00000+0 0 9996
L22 44475 0.0725 311.0502 0000652 272.0659 217.7056 1.00274657 376

Live tracking and technical data element details for EDRS-C (NORAD 44475). EDRS-C can be tracked NOW for your location showing map with azimuth and elevation plus other details from your city location.

Track the satellite on the map from your city or location and see movement details for azimuth, elevation, latitude, longitude, range, height, and movement on the map or in text.







IsCatalogInMostPopularTable: catalog: 44475, numindb: 13
Update: records affected: 1



GetName: 44475 EDRS-C

Hit Count: updated at: Tue, 22 Oct 2019 23:56:49 GMT